TimeHST,TemperatureF,Dew PointF,Humidity,Sea Level PressureIn,VisibilityMPH,Wind Direction,Wind SpeedMPH,Gust SpeedMPH,PrecipitationIn,Events,Conditions,WindDirDegrees,DateUTC
12:53 AM,64.9,62.1,90,30.04,10.0,West,8.1,-,N/A,,Partly Cloudy,280,2013-03-21 10:53:00
1:53 AM,64.0,61.0,90,30.03,10.0,WSW,4.6,-,N/A,,Clear,240,2013-03-21 11:53:00
2:46 AM,64.4,62.6,94,30.02,10.0,WNW,5.8,-,N/A,,Mostly Cloudy,290,2013-03-21 12:46:00
2:53 AM,64.9,61.0,87,30.01,10.0,West,5.8,-,N/A,,Scattered Clouds,280,2013-03-21 12:53:00
3:53 AM,63.0,61.0,93,30.01,10.0,West,4.6,-,N/A,,Clear,260,2013-03-21 13:53:00
4:53 AM,64.0,61.0,90,30.01,10.0,West,5.8,-,N/A,,Clear,270,2013-03-21 14:53:00
5:53 AM,63.0,60.1,90,30.01,10.0,West,5.8,-,N/A,,Clear,260,2013-03-21 15:53:00
6:53 AM,63.0,60.1,90,30.03,10.0,West,5.8,-,N/A,,Clear,260,2013-03-21 16:53:00
7:53 AM,64.0,60.8,89,30.05,10.0,West,4.6,-,N/A,,Clear,260,2013-03-21 17:53:00
8:53 AM,66.9,64.4,92,30.06,10.0,South,4.6,-,N/A,,Scattered Clouds,190,2013-03-21 18:53:00
9:14 AM,73.4,69.8,88,30.07,10.0,SSE,9.2,-,N/A,,Mostly Cloudy,160,2013-03-21 19:14:00
9:53 AM,73.9,69.8,87,30.06,10.0,SSE,11.5,-,N/A,,Mostly Cloudy,160,2013-03-21 19:53:00
10:13 AM,75.2,68.0,78,30.06,10.0,SSE,11.5,-,N/A,,Mostly Cloudy,150,2013-03-21 20:13:00
10:53 AM,75.9,68.0,76,30.05,10.0,SE,13.8,-,N/A,,Mostly Cloudy,140,2013-03-21 20:53:00
11:53 AM,77.0,69.8,78,30.04,10.0,SSE,13.8,-,N/A,,Partly Cloudy,150,2013-03-21 21:53:00
12:53 PM,80.1,71.6,75,30.01,10.0,South,15.0,-,N/A,,Clear,190,2013-03-21 22:53:00
1:53 PM,79.0,69.8,73,29.99,10.0,South,15.0,21.9,N/A,,Mostly Cloudy,190,2013-03-21 23:53:00
2:53 PM,79.0,69.8,73,29.98,10.0,South,16.1,25.3,N/A,,Partly Cloudy,190,2013-03-22 00:53:00
3:53 PM,79.0,69.8,73,29.96,10.0,South,15.0,-,N/A,,Scattered Clouds,180,2013-03-22 01:53:00
4:53 PM,77.0,69.8,78,29.97,10.0,SSW,13.8,25.3,N/A,,Partly Cloudy,200,2013-03-22 02:53:00
5:51 PM,75.2,68.0,78,29.98,10.0,SSW,11.5,24.2,N/A,,Mostly Cloudy,200,2013-03-22 03:51:00
5:53 PM,75.9,68.0,76,29.98,10.0,SSW,10.4,23.0,N/A,,Mostly Cloudy,200,2013-03-22 03:53:00
6:23 PM,75.2,68.0,78,29.99,10.0,SSW,15.0,21.9,N/A,,Mostly Cloudy,200,2013-03-22 04:23:00
6:30 PM,75.2,68.0,78,30.00,10.0,SW,17.3,25.3,N/A,,Mostly Cloudy,220,2013-03-22 04:30:00
6:38 PM,75.2,68.0,78,30.00,10.0,SSW,9.2,25.3,N/A,,Mostly Cloudy,210,2013-03-22 04:38:00
6:46 PM,75.2,68.0,78,30.00,10.0,SSW,12.7,21.9,N/A,,Mostly Cloudy,200,2013-03-22 04:46:00
6:53 PM,75.0,68.0,79,30.00,10.0,SSW,13.8,24.2,N/A,,Mostly Cloudy,200,2013-03-22 04:53:00
7:13 PM,75.2,68.0,78,30.01,10.0,South,16.1,23.0,N/A,,Mostly Cloudy,190,2013-03-22 05:13:00
7:53 PM,75.0,68.0,79,30.02,10.0,South,10.4,28.8,N/A,,Scattered Clouds,190,2013-03-22 05:53:00
8:53 PM,73.9,68.0,82,30.04,10.0,SSW,15.0,-,N/A,,Partly Cloudy,210,2013-03-22 06:53:00
9:53 PM,73.9,-9999,N/A,30.03,10.0,SSW,10.4,-,N/A,,Mostly Cloudy,210,2013-03-22 07:53:00
10:53 PM,73.9,-9999,N/A,30.04,10.0,SSW,9.2,-,N/A,,Mostly Cloudy,200,2013-03-22 08:53:00
11:00 PM,73.4,-9999,N/A,30.04,10.0,SSW,5.8,-,N/A,,Overcast,200,2013-03-22 09:00:00
11:53 PM,73.0,68.0,84,30.03,10.0,SSW,6.9,18.4,N/A,,Overcast,200,2013-03-22 09:53:00